Wetterdaten: Dienstag, 02.07.2013
Datum Zeit Temperatur Luftfeuchte Luftdruck Regen Wind Richtung Richtung Taupunkt Windchill Windben
02.07.2013 00:00 11,0 C 86 % 1020,1 hPa 0,0 l/m 0,0 km/h (0 Bft) N-NO 22 8,7 C 10,3 C 0,0 km/h (0 Bft)
02.07.2013 00:05 11,0 C 87 % 1020,0 hPa 0,0 l/m 0,0 km/h (0 Bft) N-NO 22 8,9 C 10,4 C 0,0 km/h (0 Bft)
02.07.2013 00:10 10,7 C 87 % 1020,0 hPa 0,0 l/m 0,0 km/h (0 Bft) N-NW 337 8,6 C 10,4 C 0,0 km/h (0 Bft)
02.07.2013 00:15 10,5 C 87 % 1020,0 hPa 0,0 l/m 0,0 km/h (0 Bft) W-NW 292 8,4 C 10,3 C 0,0 km/h (0 Bft)
02.07.2013 00:20 10,3 C 87 % 1020,0 hPa 0,0 l/m 0,0 km/h (0 Bft) W-NW 292 8,2 C 10,1 C 0,0 km/h (0 Bft)
02.07.2013 00:25 10,3 C 87 % 1020,0 hPa 0,0 l/m 0,0 km/h (0 Bft) O 90 8,2 C 10,0 C 0,0 km/h (0 Bft)
02.07.2013 00:30 10,0 C 87 % 1020,0 hPa 0,0 l/m 0,0 km/h (0 Bft) O 90 7,9 C 9,8 C 0,0 km/h (0 Bft)
02.07.2013 00:35 10,2 C 87 % 1020,0 hPa 0,0 l/m 0,0 km/h (0 Bft) O 90 8,1 C 9,7 C 0,0 km/h (0 Bft)
02.07.2013 00:40 10,6 C 88 % 1020,0 hPa 0,0 l/m 0,0 km/h (0 Bft) O-SO 112 8,7 C 10,0 C 0,0 km/h (0 Bft)
02.07.2013 00:45 10,5 C 88 % 1020,1 hPa 0,0 l/m 0,2 km/h (0 Bft) W-SW 247 8,6 C 10,1 C 0,0 km/h (0 Bft)
02.07.2013 00:50 10,4 C 88 % 1020,1 hPa 0,0 l/m 0,2 km/h (0 Bft) O-SO 112 8,5 C 10,0 C 1,9 km/h (1 Bft)
02.07.2013 00:55 10,5 C 88 % 1020,1 hPa 0,0 l/m 0,0 km/h (0 Bft) O 90 8,6 C 9,9 C 0,0 km/h (0 Bft)
02.07.2013 01:00 10,7 C 88 % 1020,1 hPa 0,0 l/m 0,0 km/h (0 Bft) O-NO 67 8,8 C 10,0 C 0,0 km/h (0 Bft)
02.07.2013 01:05 11,0 C 88 % 1020,2 hPa 0,0 l/m 0,6 km/h (0 Bft) O-NO 67 9,1 C 10,2 C 2,6 km/h (1 Bft)
02.07.2013 01:10 11,1 C 88 % 1020,2 hPa 0,0 l/m 1,3 km/h (1 Bft) O-SO 112 9,2 C 10,4 C 4,2 km/h (1 Bft)
02.07.2013 01:15 11,1 C 88 % 1020,2 hPa 0,0 l/m 1,4 km/h (1 Bft) NO 45 9,2 C 10,4 C 2,3 km/h (1 Bft)
02.07.2013 01:20 10,8 C 88 % 1020,2 hPa 0,0 l/m 0,5 km/h (0 Bft) O 90 8,9 C 10,4 C 0,0 km/h (0 Bft)
02.07.2013 01:25 10,7 C 88 % 1020,1 hPa 0,0 l/m 0,2 km/h (0 Bft) O 90 8,8 C 10,2 C 0,0 km/h (0 Bft)
02.07.2013 01:30 10,5 C 88 % 1020,1 hPa 0,0 l/m 0,0 km/h (0 Bft) O 90 8,6 C 10,0 C 0,0 km/h (0 Bft)
02.07.2013 01:35 10,3 C 88 % 1020,1 hPa 0,0 l/m 0,0 km/h (0 Bft) S-SW 202 8,4 C 9,9 C 0,0 km/h (0 Bft)
02.07.2013 01:40 10,2 C 88 % 1020,1 hPa 0,0 l/m 0,2 km/h (0 Bft) S-SW 202 8,3 C 9,7 C 3,4 km/h (1 Bft)
02.07.2013 01:45 10,0 C 88 % 1019,8 hPa 0,0 l/m 0,2 km/h (0 Bft) W-SW 247 8,1 C 9,8 C 0,0 km/h (0 Bft)
02.07.2013 01:50 10,3 C 88 % 1019,8 hPa 0,0 l/m 0,5 km/h (0 Bft) NO 45 8,4 C 9,7 C 2,7 km/h (1 Bft)
02.07.2013 01:55 10,3 C 89 % 1019,8 hPa 0,0 l/m 1,1 km/h (1 Bft) SW 225 8,6 C 9,9 C 5,8 km/h (2 Bft)
02.07.2013 02:00 10,2 C 89 % 1019,8 hPa 0,0 l/m 1,4 km/h (1 Bft) S 180 8,5 C 10,0 C 1,8 km/h (1 Bft)
02.07.2013 02:05 10,0 C 89 % 1019,8 hPa 0,0 l/m 1,1 km/h (1 Bft) W-SW 247 8,3 C 10,0 C 3,1 km/h (1 Bft)
02.07.2013 02:10 9,7 C 89 % 1019,8 hPa 0,0 l/m 0,3 km/h (0 Bft) S-SW 202 8,0 C 9,7 C 0,0 km/h (0 Bft)
02.07.2013 02:15 10,0 C 89 % 1019,8 hPa 0,0 l/m 0,5 km/h (0 Bft) N-NO 22 8,3 C 9,7 C 1,8 km/h (1 Bft)
02.07.2013 02:20 10,3 C 90 % 1019,8 hPa 0,0 l/m 1,4 km/h (1 Bft) O-SO 112 8,7 C 9,8 C 1,6 km/h (1 Bft)
02.07.2013 02:25 10,1 C 90 % 1020,0 hPa 0,0 l/m 1,3 km/h (1 Bft) W-SW 247 8,5 C 9,9 C 0,0 km/h (0 Bft)
02.07.2013 02:30 9,9 C 90 % 1020,0 hPa 0,0 l/m 0,3 km/h (0 Bft) W-SW 247 8,3 C 9,7 C 0,0 km/h (0 Bft)
02.07.2013 02:35 9,8 C 90 % 1020,0 hPa 0,0 l/m 0,2 km/h (0 Bft) SO 135 8,2 C 9,6 C 0,0 km/h (0 Bft)
02.07.2013 02:40 9,6 C 89 % 1020,0 hPa 0,0 l/m 0,2 km/h (0 Bft) S 180 7,9 C 9,4 C 0,0 km/h (0 Bft)
02.07.2013 02:45 9,7 C 90 % 1019,9 hPa 0,0 l/m 0,2 km/h (0 Bft) O-SO 112 8,1 C 9,4 C 0,0 km/h (0 Bft)
02.07.2013 02:50 9,5 C 90 % 1019,9 hPa 0,0 l/m 0,0 km/h (0 Bft) SO 135 7,9 C 9,3 C 0,0 km/h (0 Bft)
02.07.2013 02:55 9,5 C 89 % 1019,9 hPa 0,0 l/m 0,0 km/h (0 Bft) O-SO 112 7,8 C 9,2 C 0,0 km/h (0 Bft)
02.07.2013 03:00 9,2 C 89 % 1019,9 hPa 0,0 l/m 0,0 km/h (0 Bft) S-SW 202 7,5 C 9,1 C 0,0 km/h (0 Bft)
02.07.2013 03:05 9,2 C 89 % 1019,8 hPa 0,0 l/m 0,0 km/h (0 Bft) SO 135 7,5 C 9,1 C 0,0 km/h (0 Bft)
02.07.2013 03:10 9,4 C 90 % 1019,8 hPa 0,0 l/m 0,0 km/h (0 Bft) O 90 7,8 C 9,1 C 0,0 km/h (0 Bft)
02.07.2013 03:15 9,3 C 90 % 1019,8 hPa 0,0 l/m 0,0 km/h (0 Bft) NO 45 7,7 C 9,1 C 0,0 km/h (0 Bft)
02.07.2013 03:20 9,4 C 90 % 1019,8 hPa 0,0 l/m 0,0 km/h (0 Bft) NO 45 7,8 C 9,1 C 0,0 km/h (0 Bft)
02.07.2013 03:25 9,6 C 90 % 1019,6 hPa 0,0 l/m 0,0 km/h (0 Bft) N-NO 22 8,0 C 9,2 C 0,0 km/h (0 Bft)
02.07.2013 03:30 9,6 C 90 % 1019,6 hPa 0,0 l/m 0,0 km/h (0 Bft) N 360 8,0 C 9,4 C 0,0 km/h (0 Bft)
02.07.2013 03:35 9,9 C 90 % 1019,6 hPa 0,0 l/m 0,0 km/h (0 Bft) N-NO 22 8,3 C 9,4 C 0,0 km/h (0 Bft)
02.07.2013 03:40 10,0 C 90 % 1019,6 hPa 0,0 l/m 0,0 km/h (0 Bft) N-NO 22 8,4 C 9,4 C 0,0 km/h (0 Bft)
02.07.2013 03:45 10,0 C 90 % 1019,5 hPa 0,0 l/m 0,0 km/h (0 Bft) N-NO 22 8,4 C 9,5 C 0,0 km/h (0 Bft)
02.07.2013 03:50 10,0 C 90 % 1019,5 hPa 0,0 l/m 0,0 km/h (0 Bft) NO 45 8,4 C 9,7 C 0,0 km/h (0 Bft)
02.07.2013 03:55 10,1 C 90 % 1019,5 hPa 0,0 l/m 0,0 km/h (0 Bft) N 360 8,5 C 9,7 C 0,0 km/h (0 Bft)
02.07.2013 04:00 10,1 C 90 % 1019,5 hPa 0,0 l/m 0,0 km/h (0 Bft) N-NO 22 8,5 C 9,9 C 0,0 km/h (0 Bft)
02.07.2013 04:05 10,2 C 90 % 1019,5 hPa 0,0 l/m 0,0 km/h (0 Bft) N 360 8,6 C 9,9 C 0,0 km/h (0 Bft)
02.07.2013 04:10 10,3 C 90 % 1019,5 hPa 0,0 l/m 0,0 km/h (0 Bft) NO 45 8,7 C 9,9 C 0,0 km/h (0 Bft)
02.07.2013 04:15 10,3 C 89 % 1019,5 hPa 0,0 l/m 0,0 km/h (0 Bft) N-NO 22 8,6 C 10,0 C 0,0 km/h (0 Bft)
02.07.2013 04:20 10,3 C 89 % 1019,5 hPa 0,0 l/m 0,0 km/h (0 Bft) N 360 8,6 C 10,0 C 0,0 km/h (0 Bft)
02.07.2013 04:25 10,2 C 89 % 1019,6 hPa 0,0 l/m 0,0 km/h (0 Bft) NO 45 8,5 C 10,0 C 0,0 km/h (0 Bft)
02.07.2013 04:30 10,5 C 89 % 1019,6 hPa 0,0 l/m 0,0 km/h (0 Bft) S 180 8,8 C 10,2 C 0,0 km/h (0 Bft)
02.07.2013 04:35 10,9 C 89 % 1019,6 hPa 0,0 l/m 0,2 km/h (0 Bft) O-SO 112 9,2 C 10,4 C 3,7 km/h (1 Bft)
02.07.2013 04:40 11,7 C 89 % 1019,6 hPa 0,0 l/m 0,3 km/h (0 Bft) S 180 9,9 C 10,8 C 0,0 km/h (0 Bft)
02.07.2013 04:45 11,9 C 89 % 1020,1 hPa 0,0 l/m 0,5 km/h (0 Bft) NO 45 10,1 C 11,1 C 1,8 km/h (1 Bft)
02.07.2013 04:50 12,0 C 88 % 1020,1 hPa 0,0 l/m 0,8 km/h (0 Bft) N 360 10,1 C 11,3 C 1,6 km/h (1 Bft)
02.07.2013 04:55 12,1 C 88 % 1020,1 hPa 0,0 l/m 1,0 km/h (0 Bft) NO 45 10,2 C 11,4 C 0,0 km/h (0 Bft)
02.07.2013 05:00 12,1 C 87 % 1020,1 hPa 0,0 l/m 0,5 km/h (0 Bft) NO 45 10,0 C 11,7 C 0,0 km/h (0 Bft)
02.07.2013 05:05 12,1 C 87 % 1020,1 hPa 0,0 l/m 0,0 km/h (0 Bft) W-NW 292 10,0 C 11,7 C 0,0 km/h (0 Bft)
02.07.2013 05:10 12,1 C 86 % 1020,1 hPa 0,0 l/m 0,0 km/h (0 Bft) O 90 9,8 C 11,8 C 0,0 km/h (0 Bft)
02.07.2013 05:15 12,1 C 86 % 1020,1 hPa 0,0 l/m 0,0 km/h (0 Bft) O-SO 112 9,8 C 11,9 C 0,0 km/h (0 Bft)
02.07.2013 05:20 12,2 C 86 % 1020,1 hPa 0,0 l/m 0,6 km/h (0 Bft) O-NO 67 9,9 C 12,0 C 3,5 km/h (1 Bft)
02.07.2013 05:25 12,4 C 85 % 1020,3 hPa 0,0 l/m 1,4 km/h (1 Bft) S 180 9,9 C 12,2 C 6,8 km/h (2 Bft)
02.07.2013 05:30 12,6 C 85 % 1020,3 hPa 0,0 l/m 1,6 km/h (1 Bft) NO 45 10,1 C 12,6 C 9,2 km/h (2 Bft)
02.07.2013 05:35 12,7 C 84 % 1020,3 hPa 0,0 l/m 1,1 km/h (1 Bft) SO 135 10,1 C 12,7 C 0,0 km/h (0 Bft)
02.07.2013 05:40 12,7 C 83 % 1020,3 hPa 0,0 l/m 1,0 km/h (0 Bft) N-NO 22 9,9 C 12,8 C 3,5 km/h (1 Bft)
02.07.2013 05:45 12,7 C 83 % 1020,0 hPa 0,0 l/m 1,0 km/h (0 Bft) S-SW 202 9,9 C 12,9 C 3,9 km/h (1 Bft)
02.07.2013 05:50 12,7 C 82 % 1020,0 hPa 0,0 l/m 1,6 km/h (1 Bft) O-SO 112 9,7 C 13,1 C 4,7 km/h (1 Bft)
02.07.2013 05:55 12,9 C 81 % 1020,0 hPa 0,0 l/m 1,6 km/h (1 Bft) N-NO 22 9,7 C 13,3 C 3,1 km/h (1 Bft)
02.07.2013 06:00 12,8 C 81 % 1020,0 hPa 0,0 l/m 1,6 km/h (1 Bft) W-SW 247 9,6 C 13,3 C 2,3 km/h (1 Bft)
02.07.2013 06:05 12,9 C 80 % 1019,9 hPa 0,0 l/m 1,1 km/h (1 Bft) S-SW 202 9,5 C 13,5 C 0,0 km/h (0 Bft)
02.07.2013 06:10 12,9 C 80 % 1019,9 hPa 0,0 l/m 0,6 km/h (0 Bft) NO 45 9,5 C 13,5 C 0,0 km/h (0 Bft)
02.07.2013 06:15 13,0 C 79 % 1019,9 hPa 0,0 l/m 0,6 km/h (0 Bft) N 360 9,4 C 13,4 C 4,0 km/h (1 Bft)
02.07.2013 06:20 13,0 C 78 % 1019,9 hPa 0,0 l/m 0,5 km/h (0 Bft) N 360 9,3 C 13,6 C 0,0 km/h (0 Bft)
02.07.2013 06:25 13,1 C 78 % 1020,0 hPa 0,0 l/m 0,3 km/h (0 Bft) N-NW 337 9,4 C 13,6 C 0,0 km/h (0 Bft)
02.07.2013 06:30 13,3 C 77 % 1020,0 hPa 0,0 l/m 1,0 km/h (0 Bft) S-SW 202 9,4 C 13,8 C 2,3 km/h (1 Bft)
02.07.2013 06:35 13,0 C 78 % 1020,0 hPa 0,0 l/m 1,0 km/h (0 Bft) S-SW 202 9,3 C 13,8 C 0,0 km/h (0 Bft)
02.07.2013 06:40 12,7 C 79 % 1020,0 hPa 0,0 l/m 0,2 km/h (0 Bft) O-SO 112 9,2 C 13,5 C 0,0 km/h (0 Bft)
02.07.2013 06:45 12,7 C 79 % 1020,0 hPa 0,0 l/m 0,0 km/h (0 Bft) O-SO 112 9,2 C 13,3 C 0,0 km/h (0 Bft)
02.07.2013 06:50 12,9 C 79 % 1020,0 hPa 0,0 l/m 0,0 km/h (0 Bft) W-SW 247 9,3 C 13,1 C 1,9 km/h (1 Bft)
02.07.2013 06:55 13,3 C 78 % 1020,0 hPa 0,0 l/m 0,3 km/h (0 Bft) NO 45 9,5 C 13,2 C 2,7 km/h (1 Bft)
02.07.2013 07:00 13,6 C 78 % 1020,0 hPa 0,0 l/m 0,5 km/h (0 Bft) W-SW 247 9,8 C 13,5 C 0,0 km/h (0 Bft)
02.07.2013 07:05 14,3 C 77 % 1020,1 hPa 0,0 l/m 0,3 km/h (0 Bft) S-SW 202 10,3 C 13,9 C 0,0 km/h (0 Bft)
02.07.2013 07:10 14,7 C 76 % 1020,1 hPa 0,0 l/m 0,0 km/h (0 Bft) S 180 10,5 C 14,4 C 0,0 km/h (0 Bft)
02.07.2013 07:15 15,3 C 75 % 1020,1 hPa 0,0 l/m 0,5 km/h (0 Bft) SW 225 10,9 C 14,8 C 3,9 km/h (1 Bft)
02.07.2013 07:20 16,9 C 71 % 1020,1 hPa 0,0 l/m 1,1 km/h (1 Bft) O 90 11,6 C 15,8 C 0,0 km/h (0 Bft)
02.07.2013 07:25 17,8 C 68 % 1020,1 hPa 0,0 l/m 1,0 km/h (0 Bft) N-NO 22 11,8 C 17,2 C 1,8 km/h (1 Bft)
02.07.2013 07:30 17,4 C 64 % 1020,1 hPa 0,0 l/m 0,2 km/h (0 Bft) N-NW 337 10,5 C 18,6 C 0,0 km/h (0 Bft)
02.07.2013 07:35 18,4 C 62 % 1020,1 hPa 0,0 l/m 0,3 km/h (0 Bft) N 360 11,0 C 19,5 C 2,3 km/h (1 Bft)
02.07.2013 07:40 16,4 C 67 % 1020,1 hPa 0,0 l/m 0,2 km/h (0 Bft) N 360 10,3 C 18,9 C 0,0 km/h (0 Bft)
02.07.2013 07:45 15,8 C 68 % 1020,3 hPa 0,0 l/m 0,2 km/h (0 Bft) NO 45 9,9 C 18,2 C 0,0 km/h (0 Bft)
02.07.2013 07:50 20,0 C 65 % 1020,3 hPa 0,0 l/m 0,2 km/h (0 Bft) N-NO 22 13,2 C 18,7 C 0,0 km/h (0 Bft)
02.07.2013 07:55 22,5 C 63 % 1020,3 hPa 0,0 l/m 0,2 km/h (0 Bft) N 360 15,1 C 20,7 C 0,0 km/h (0 Bft)
02.07.2013 08:00 21,1 C 58 % 1020,3 hPa 0,0 l/m 0,8 km/h (0 Bft) W-SW 247 12,5 C 22,4 C 0,0 km/h (0 Bft)
02.07.2013 08:05 19,9 C 62 % 1020,6 hPa 0,0 l/m 0,8 km/h (0 Bft) W-SW 247 12,4 C 21,5 C 0,0 km/h (0 Bft)
02.07.2013 08:10 19,1 C 60 % 1020,6 hPa 0,0 l/m 0,5 km/h (0 Bft) S-SW 202 11,1 C 21,3 C 1,8 km/h (1 Bft)
02.07.2013 08:15 18,3 C 63 % 1020,6 hPa 0,0 l/m 0,2 km/h (0 Bft) S-SW 202 11,1 C 20,9 C 0,0 km/h (0 Bft)
02.07.2013 08:20 17,5 C 64 % 1020,6 hPa 0,0 l/m 0,0 km/h (0 Bft) W-SW 247 10,6 C 19,9 C 0,0 km/h (0 Bft)
02.07.2013 08:25 17,2 C 65 % 1020,6 hPa 0,0 l/m 0,0 km/h (0 Bft) SW 225 10,6 C 19,2 C 0,0 km/h (0 Bft)
02.07.2013 08:30 20,2 C 63 % 1020,6 hPa 0,0 l/m 0,0 km/h (0 Bft) SW 225 12,9 C 19,5 C 0,0 km/h (0 Bft)
02.07.2013 08:35 20,2 C 59 % 1020,6 hPa 0,0 l/m 0,0 km/h (0 Bft) S-SW 202 11,9 C 21,1 C 0,0 km/h (0 Bft)
02.07.2013 08:40 20,8 C 61 % 1020,6 hPa 0,0 l/m 0,3 km/h (0 Bft) S-SW 202 13,0 C 21,6 C 0,0 km/h (0 Bft)
02.07.2013 08:45 22,1 C 58 % 1020,6 hPa 0,0 l/m 0,3 km/h (0 Bft) W-SW 247 13,4 C 22,5 C 0,0 km/h (0 Bft)
02.07.2013 08:50 23,3 C 52 % 1020,6 hPa 0,0 l/m 0,0 km/h (0 Bft) S-SW 202 12,9 C 24,7 C 0,0 km/h (0 Bft)
02.07.2013 08:55 23,7 C 52 % 1020,6 hPa 0,0 l/m 0,0 km/h (0 Bft) SW 225 13,2 C 25,8 C 0,0 km/h (0 Bft)
02.07.2013 09:00 24,3 C 51 % 1020,6 hPa 0,0 l/m 0,0 km/h (0 Bft) W-SW 247 13,5 C 26,9 C 0,0 km/h (0 Bft)
02.07.2013 09:05 24,2 C 49 % 1020,8 hPa 0,0 l/m 0,0 km/h (0 Bft) SW 225 12,8 C 27,3 C 0,0 km/h (0 Bft)
02.07.2013 09:10 24,4 C 49 % 1020,8 hPa 0,0 l/m 0,2 km/h (0 Bft) W-SW 247 13,0 C 27,7 C 0,0 km/h (0 Bft)
02.07.2013 09:15 25,5 C 47 % 1020,8 hPa 0,0 l/m 0,2 km/h (0 Bft) S-SW 202 13,3 C 28,0 C 1,6 km/h (1 Bft)
02.07.2013 09:20 26,9 C 44 % 1020,8 hPa 0,0 l/m 0,5 km/h (0 Bft) W-SW 247 13,6 C 28,0 C 0,0 km/h (0 Bft)
02.07.2013 09:25 27,3 C 42 % 1020,9 hPa 0,0 l/m 0,6 km/h (0 Bft) W-SW 247 13,2 C 27,9 C 2,6 km/h (1 Bft)
02.07.2013 09:30 25,8 C 42 % 1020,9 hPa 0,0 l/m 1,3 km/h (1 Bft) W-SW 247 11,9 C 27,6 C 2,7 km/h (1 Bft)
02.07.2013 09:35 27,0 C 43 % 1020,9 hPa 0,0 l/m 1,3 km/h (1 Bft) S-SW 202 13,3 C 27,7 C 0,0 km/h (0 Bft)
02.07.2013 09:40 27,4 C 40 % 1020,9 hPa 0,0 l/m 1,1 km/h (1 Bft) W-SW 247 12,6 C 27,8 C 1,9 km/h (1 Bft)
02.07.2013 09:45 27,3 C 39 % 1021,6 hPa 0,0 l/m 1,1 km/h (1 Bft) W-SW 247 12,1 C 27,9 C 1,9 km/h (1 Bft)
02.07.2013 09:50 26,7 C 39 % 1021,6 hPa 0,0 l/m 0,8 km/h (0 Bft) W-SW 247 11,6 C 28,1 C 4,8 km/h (1 Bft)
02.07.2013 09:55 26,6 C 40 % 1021,6 hPa 0,0 l/m 1,1 km/h (1 Bft) S 180 11,9 C 28,0 C 4,2 km/h (1 Bft)
02.07.2013 10:00 26,7 C 38 % 1021,6 hPa 0,0 l/m 2,7 km/h (1 Bft) W-SW 247 11,2 C 27,6 C 6,1 km/h (2 Bft)
02.07.2013 10:05 26,9 C 38 % 1021,6 hPa 0,0 l/m 4,0 km/h (1 Bft) S-SW 202 11,4 C 27,0 C 3,9 km/h (1 Bft)
02.07.2013 10:10 26,2 C 37 % 1021,6 hPa 0,0 l/m 5,3 km/h (1 Bft) W-SW 247 10,3 C 26,4 C 7,1 km/h (2 Bft)
02.07.2013 10:15 26,0 C 37 % 1021,6 hPa 0,0 l/m 5,3 km/h (1 Bft) O 90 10,2 C 26,3 C 6,1 km/h (2 Bft)
02.07.2013 10:20 25,8 C 38 % 1021,6 hPa 0,0 l/m 4,8 km/h (1 Bft) S-SW 202 10,4 C 26,4 C 9,3 km/h (2 Bft)
02.07.2013 10:25 26,1 C 38 % 1021,6 hPa 0,0 l/m 5,1 km/h (1 Bft) S-SO 157 10,7 C 26,4 C 10,1 km/h (2 Bft)
02.07.2013 10:30 26,4 C 39 % 1021,6 hPa 0,0 l/m 5,3 km/h (1 Bft) S-SW 202 11,3 C 26,3 C 10,8 km/h (2 Bft)
02.07.2013 10:35 25,9 C 39 % 1021,6 hPa 0,0 l/m 5,3 km/h (1 Bft) S-SW 202 10,9 C 26,3 C 4,3 km/h (1 Bft)
02.07.2013 10:40 26,3 C 39 % 1021,6 hPa 0,0 l/m 5,8 km/h (2 Bft) S 180 11,2 C 26,0 C 11,4 km/h (2 Bft)
02.07.2013 10:45 26,7 C 39 % 1021,6 hPa 0,0 l/m 5,5 km/h (1 Bft) W-SW 247 11,6 C 26,2 C 3,7 km/h (1 Bft)
02.07.2013 10:50 26,2 C 38 % 1021,6 hPa 0,0 l/m 5,0 km/h (1 Bft) S 180 10,7 C 26,4 C 7,7 km/h (2 Bft)
02.07.2013 10:55 26,4 C 38 % 1021,6 hPa 0,0 l/m 5,3 km/h (1 Bft) SW 225 10,9 C 26,3 C 8,9 km/h (2 Bft)
02.07.2013 11:00 26,1 C 39 % 1021,6 hPa 0,0 l/m 5,8 km/h (2 Bft) S-SW 202 11,0 C 26,3 C 12,7 km/h (3 Bft)
02.07.2013 11:05 26,4 C 38 % 1021,6 hPa 0,0 l/m 5,8 km/h (2 Bft) S 180 10,9 C 26,5 C 7,9 km/h (2 Bft)
02.07.2013 11:10 27,0 C 38 % 1021,6 hPa 0,0 l/m 5,1 km/h (1 Bft) S-SW 202 11,5 C 26,8 C 4,2 km/h (1 Bft)
02.07.2013 11:15 27,0 C 38 % 1021,6 hPa 0,0 l/m 5,3 km/h (1 Bft) W-SW 247 11,5 C 27,0 C 9,0 km/h (2 Bft)
02.07.2013 11:20 26,9 C 40 % 1021,6 hPa 0,0 l/m 6,0 km/h (2 Bft) S-SO 157 12,1 C 26,8 C 12,9 km/h (3 Bft)
02.07.2013 11:25 27,2 C 38 % 1021,4 hPa 0,0 l/m 6,8 km/h (2 Bft) S 180 11,6 C 26,6 C 10,6 km/h (2 Bft)
02.07.2013 11:30 24,7 C 43 % 1021,4 hPa 0,0 l/m 6,8 km/h (2 Bft) S-SO 157 11,3 C 25,9 C 4,2 km/h (1 Bft)
02.07.2013 11:35 25,4 C 43 % 1021,4 hPa 0,0 l/m 6,4 km/h (2 Bft) SO 135 11,9 C 25,2 C 6,8 km/h (2 Bft)
02.07.2013 11:40 26,6 C 40 % 1021,4 hPa 0,0 l/m 5,1 km/h (1 Bft) SW 225 11,9 C 25,8 C 13,2 km/h (3 Bft)
02.07.2013 11:45 26,5 C 40 % 1021,3 hPa 0,0 l/m 6,0 km/h (2 Bft) S 180 11,8 C 26,0 C 6,6 km/h (2 Bft)
02.07.2013 11:50 26,8 C 40 % 1021,3 hPa 0,0 l/m 7,6 km/h (2 Bft) W-SW 247 12,1 C 25,9 C 16,7 km/h (3 Bft)
02.07.2013 11:55 26,9 C 40 % 1021,3 hPa 0,0 l/m 6,9 km/h (2 Bft) S-SO 157 12,1 C 26,3 C 11,3 km/h (2 Bft)
02.07.2013 12:00 27,5 C 40 % 1021,3 hPa 0,0 l/m 6,6 km/h (2 Bft) S-SW 202 12,7 C 26,6 C 8,7 km/h (2 Bft)
02.07.2013 12:05 27,7 C 39 % 1021,4 hPa 0,0 l/m 6,3 km/h (2 Bft) S-SO 157 12,5 C 26,9 C 7,1 km/h (2 Bft)
02.07.2013 12:10 27,6 C 39 % 1021,4 hPa 0,0 l/m 6,3 km/h (2 Bft) W-SW 247 12,4 C 27,1 C 11,7 km/h (2 Bft)
02.07.2013 12:15 28,1 C 39 % 1021,4 hPa 0,0 l/m 6,9 km/h (2 Bft) SW 225 12,8 C 26,9 C 6,0 km/h (2 Bft)
02.07.2013 12:20 27,2 C 38 % 1021,4 hPa 0,0 l/m 8,0 km/h (2 Bft) S-SW 202 11,6 C 26,7 C 10,5 km/h (2 Bft)
02.07.2013 12:25 27,0 C 39 % 1021,6 hPa 0,0 l/m 7,9 km/h (2 Bft) S 180 11,8 C 26,6 C 6,3 km/h (2 Bft)
02.07.2013 12:30 26,8 C 40 % 1021,6 hPa 0,0 l/m 6,1 km/h (2 Bft) S-SW 202 12,1 C 27,3 C 5,6 km/h (1 Bft)
02.07.2013 12:35 26,2 C 40 % 1021,6 hPa 0,0 l/m 5,6 km/h (1 Bft) S 180 11,5 C 26,5 C 5,0 km/h (1 Bft)
02.07.2013 12:40 27,3 C 40 % 1021,6 hPa 0,0 l/m 6,0 km/h (2 Bft) S-SW 202 12,5 C 26,8 C 11,6 km/h (2 Bft)
02.07.2013 12:45 27,8 C 39 % 1021,5 hPa 0,0 l/m 6,0 km/h (2 Bft) W-SW 247 12,6 C 27,5 C 5,0 km/h (1 Bft)
02.07.2013 12:50 25,9 C 43 % 1021,5 hPa 0,0 l/m 5,8 km/h (2 Bft) W-SW 247 12,3 C 27,7 C 5,1 km/h (1 Bft)
02.07.2013 12:55 25,1 C 45 % 1021,5 hPa 0,0 l/m 6,1 km/h (2 Bft) N 360 12,3 C 26,4 C 9,3 km/h (2 Bft)
02.07.2013 13:00 25,1 C 46 % 1021,5 hPa 0,0 l/m 6,8 km/h (2 Bft) S-SO 157 12,7 C 25,9 C 4,8 km/h (1 Bft)
02.07.2013 13:05 26,4 C 41 % 1021,4 hPa 0,0 l/m 6,8 km/h (2 Bft) W-SW 247 12,1 C 26,2 C 7,6 km/h (2 Bft)
02.07.2013 13:10 25,6 C 44 % 1021,4 hPa 0,0 l/m 7,4 km/h (2 Bft) W-NW 292 12,4 C 26,0 C 6,8 km/h (2 Bft)
02.07.2013 13:15 26,7 C 42 % 1021,4 hPa 0,0 l/m 7,4 km/h (2 Bft) W-SW 247 12,7 C 26,1 C 6,3 km/h (2 Bft)
02.07.2013 13:20 26,7 C 40 % 1021,4 hPa 0,0 l/m 7,1 km/h (2 Bft) S-SW 202 12,0 C 26,6 C 19,3 km/h (3 Bft)
02.07.2013 13:25 25,6 C 44 % 1021,4 hPa 0,0 l/m 6,8 km/h (2 Bft) S-SW 202 12,4 C 26,5 C 11,1 km/h (2 Bft)
02.07.2013 13:30 26,6 C 41 % 1021,4 hPa 0,0 l/m 7,1 km/h (2 Bft) S 180 12,2 C 26,4 C 10,1 km/h (2 Bft)
02.07.2013 13:35 26,7 C 42 % 1021,4 hPa 0,0 l/m 7,4 km/h (2 Bft) S 180 12,7 C 26,5 C 7,6 km/h (2 Bft)
02.07.2013 13:40 27,1 C 40 % 1021,4 hPa 0,0 l/m 7,7 km/h (2 Bft) W-SW 247 12,3 C 26,7 C 8,5 km/h (2 Bft)
02.07.2013 13:45 27,2 C 40 % 1021,1 hPa 0,0 l/m 8,0 km/h (2 Bft) S 180 12,4 C 26,9 C 8,9 km/h (2 Bft)
02.07.2013 13:50 27,3 C 40 % 1021,1 hPa 0,0 l/m 7,2 km/h (2 Bft) S 180 12,5 C 27,2 C 7,6 km/h (2 Bft)
02.07.2013 13:55 27,1 C 38 % 1021,1 hPa 0,0 l/m 7,2 km/h (2 Bft) S 180 11,5 C 27,4 C 12,6 km/h (3 Bft)
02.07.2013 14:00 27,4 C 38 % 1021,1 hPa 0,0 l/m 8,0 km/h (2 Bft) SW 225 11,8 C 27,2 C 9,3 km/h (2 Bft)
02.07.2013 14:05 27,6 C 37 % 1021,2 hPa 0,0 l/m 7,2 km/h (2 Bft) S 180 11,6 C 27,5 C 4,2 km/h (1 Bft)
02.07.2013 14:10 28,3 C 38 % 1021,2 hPa 0,0 l/m 5,1 km/h (1 Bft) S-SW 202 12,6 C 28,7 C 7,4 km/h (2 Bft)
02.07.2013 14:15 28,2 C 37 % 1021,2 hPa 0,0 l/m 5,1 km/h (1 Bft) W-SW 247 12,1 C 28,9 C 7,4 km/h (2 Bft)
02.07.2013 14:20 27,0 C 38 % 1021,2 hPa 0,0 l/m 5,6 km/h (1 Bft) W-SW 247 11,5 C 28,7 C 3,7 km/h (1 Bft)
02.07.2013 14:25 28,4 C 37 % 1021,2 hPa 0,0 l/m 3,9 km/h (1 Bft) N-NW 337 12,3 C 29,0 C 3,2 km/h (1 Bft)
02.07.2013 14:30 26,4 C 38 % 1021,2 hPa 0,0 l/m 2,3 km/h (1 Bft) W 270 10,9 C 29,6 C 5,3 km/h (1 Bft)
02.07.2013 14:35 26,3 C 39 % 1021,2 hPa 0,0 l/m 2,3 km/h (1 Bft) W 270 11,2 C 28,8 C 4,2 km/h (1 Bft)
02.07.2013 14:40 27,3 C 39 % 1021,2 hPa 0,0 l/m 3,5 km/h (1 Bft) W-SW 247 12,1 C 28,4 C 7,9 km/h (2 Bft)
02.07.2013 14:45 27,9 C 38 % 1021,0 hPa 0,0 l/m 3,9 km/h (1 Bft) S-SO 157 12,2 C 28,9 C 3,5 km/h (1 Bft)
02.07.2013 14:50 26,8 C 39 % 1021,0 hPa 0,0 l/m 3,2 km/h (1 Bft) N-NW 337 11,7 C 29,6 C 2,9 km/h (1 Bft)
02.07.2013 14:55 26,0 C 40 % 1021,0 hPa 0,0 l/m 4,0 km/h (1 Bft) O 90 11,3 C 29,1 C 3,9 km/h (1 Bft)
02.07.2013 15:00 25,2 C 45 % 1021,0 hPa 0,0 l/m 5,0 km/h (1 Bft) O 90 12,4 C 27,9 C 5,3 km/h (1 Bft)
02.07.2013 15:05 25,4 C 45 % 1021,0 hPa 0,0 l/m 4,8 km/h (1 Bft) N-NW 337 12,6 C 27,8 C 9,7 km/h (2 Bft)
02.07.2013 15:10 24,6 C 45 % 1021,0 hPa 0,0 l/m 4,8 km/h (1 Bft) N 360 11,9 C 27,1 C 5,5 km/h (1 Bft)
02.07.2013 15:15 24,9 C 46 % 1021,0 hPa 0,0 l/m 5,5 km/h (1 Bft) N-NW 337 12,5 C 27,0 C 11,3 km/h (2 Bft)
02.07.2013 15:20 24,1 C 49 % 1021,0 hPa 0,0 l/m 5,5 km/h (1 Bft) N-NW 337 12,7 C 26,4 C 6,6 km/h (2 Bft)
02.07.2013 15:25 24,4 C 49 % 1020,8 hPa 0,0 l/m 5,0 km/h (1 Bft) N-NW 337 13,0 C 26,2 C 4,8 km/h (1 Bft)
02.07.2013 15:30 24,6 C 48 % 1020,8 hPa 0,0 l/m 4,5 km/h (1 Bft) NW 315 12,8 C 26,6 C 7,1 km/h (2 Bft)
02.07.2013 15:35 24,6 C 48 % 1020,8 hPa 0,0 l/m 5,1 km/h (1 Bft) N-NO 22 12,8 C 26,6 C 5,3 km/h (1 Bft)
02.07.2013 15:40 25,7 C 47 % 1020,8 hPa 0,0 l/m 4,5 km/h (1 Bft) NO 45 13,5 C 27,2 C 4,3 km/h (1 Bft)
02.07.2013 15:45 25,8 C 47 % 1020,8 hPa 0,0 l/m 4,2 km/h (1 Bft) NO 45 13,6 C 27,8 C 5,5 km/h (1 Bft)
02.07.2013 15:50 25,6 C 47 % 1020,8 hPa 0,0 l/m 4,2 km/h (1 Bft) NO 45 13,4 C 27,9 C 0,0 km/h (0 Bft)
02.07.2013 15:55 25,1 C 48 % 1020,8 hPa 0,0 l/m 4,0 km/h (1 Bft) N-NO 22 13,3 C 27,9 C 8,5 km/h (2 Bft)
02.07.2013 16:00 25,7 C 47 % 1020,8 hPa 0,0 l/m 4,2 km/h (1 Bft) N-NW 337 13,5 C 27,7 C 7,4 km/h (2 Bft)
02.07.2013 16:05 25,3 C 46 % 1020,5 hPa 0,0 l/m 5,3 km/h (1 Bft) N-NW 337 12,8 C 27,9 C 8,0 km/h (2 Bft)
02.07.2013 16:10 25,9 C 46 % 1020,5 hPa 0,0 l/m 5,6 km/h (1 Bft) NW 315 13,4 C 28,1 C 5,3 km/h (1 Bft)
02.07.2013 16:15 25,7 C 45 % 1020,5 hPa 0,0 l/m 5,5 km/h (1 Bft) NO 45 12,9 C 28,2 C 3,9 km/h (1 Bft)
02.07.2013 16:20 25,4 C 45 % 1020,5 hPa 0,0 l/m 4,3 km/h (1 Bft) W-NW 292 12,6 C 28,5 C 2,1 km/h (1 Bft)
02.07.2013 16:25 25,1 C 46 % 1020,5 hPa 0,0 l/m 3,5 km/h (1 Bft) N-NO 22 12,7 C 28,4 C 5,8 km/h (2 Bft)
02.07.2013 16:30 23,6 C 49 % 1020,5 hPa 0,0 l/m 2,9 km/h (1 Bft) N 360 12,2 C 27,5 C 5,6 km/h (1 Bft)
02.07.2013 16:35 23,4 C 50 % 1020,5 hPa 0,0 l/m 3,4 km/h (1 Bft) NW 315 12,4 C 26,4 C 5,8 km/h (2 Bft)
02.07.2013 16:40 24,0 C 49 % 1020,5 hPa 0,0 l/m 3,5 km/h (1 Bft) N-NO 22 12,6 C 26,6 C 4,5 km/h (1 Bft)
02.07.2013 16:45 24,6 C 48 % 1020,3 hPa 0,0 l/m 3,4 km/h (1 Bft) W-NW 292 12,8 C 27,0 C 1,9 km/h (1 Bft)
02.07.2013 16:50 24,4 C 47 % 1020,3 hPa 0,0 l/m 3,7 km/h (1 Bft) N-NW 337 12,3 C 28,2 C 7,9 km/h (2 Bft)
02.07.2013 16:55 23,1 C 49 % 1020,3 hPa 0,0 l/m 4,7 km/h (1 Bft) N-NW 337 11,8 C 27,3 C 7,6 km/h (2 Bft)
02.07.2013 17:00 23,7 C 51 % 1020,3 hPa 0,0 l/m 5,6 km/h (1 Bft) N-NW 337 13,0 C 26,4 C 7,6 km/h (2 Bft)
02.07.2013 17:05 23,4 C 50 % 1019,9 hPa 0,0 l/m 5,5 km/h (1 Bft) W-NW 292 12,4 C 26,4 C 4,5 km/h (1 Bft)
02.07.2013 17:10 23,7 C 51 % 1019,9 hPa 0,0 l/m 3,7 km/h (1 Bft) N-NW 337 13,0 C 26,3 C 5,6 km/h (1 Bft)
02.07.2013 17:15 23,2 C 50 % 1019,9 hPa 0,0 l/m 3,4 km/h (1 Bft) O 90 12,2 C 26,3 C 1,6 km/h (1 Bft)
02.07.2013 17:20 23,1 C 52 % 1019,9 hPa 0,0 l/m 3,2 km/h (1 Bft) N 360 12,7 C 26,0 C 2,1 km/h (1 Bft)
02.07.2013 17:25 23,4 C 51 % 1019,9 hPa 0,0 l/m 3,1 km/h (1 Bft) N-NW 337 12,7 C 26,5 C 6,8 km/h (2 Bft)
02.07.2013 17:30 23,0 C 52 % 1019,9 hPa 0,0 l/m 4,3 km/h (1 Bft) N-NW 337 12,6 C 26,3 C 5,0 km/h (1 Bft)
02.07.2013 17:35 23,0 C 53 % 1019,9 hPa 0,0 l/m 4,5 km/h (1 Bft) N-NW 337 12,9 C 25,6 C 3,4 km/h (1 Bft)
02.07.2013 17:40 22,4 C 56 % 1019,9 hPa 0,0 l/m 3,9 km/h (1 Bft) N-NW 337 13,2 C 24,9 C 4,5 km/h (1 Bft)
02.07.2013 17:45 22,0 C 58 % 1019,8 hPa 0,0 l/m 3,9 km/h (1 Bft) N 360 13,3 C 24,4 C 4,8 km/h (1 Bft)
02.07.2013 17:50 22,5 C 58 % 1019,8 hPa 0,0 l/m 2,9 km/h (1 Bft) N-NW 337 13,8 C 24,7 C 3,5 km/h (1 Bft)
02.07.2013 17:55 23,5 C 55 % 1019,8 hPa 0,0 l/m 2,6 km/h (1 Bft) N 360 13,9 C 26,5 C 6,9 km/h (2 Bft)
02.07.2013 18:00 23,3 C 54 % 1019,8 hPa 0,0 l/m 4,3 km/h (1 Bft) N-NW 337 13,5 C 27,8 C 7,6 km/h (2 Bft)
02.07.2013 18:05 23,2 C 53 % 1019,6 hPa 0,0 l/m 5,5 km/h (1 Bft) N 360 13,1 C 27,9 C 10,3 km/h (2 Bft)
02.07.2013 18:10 22,8 C 56 % 1019,6 hPa 0,0 l/m 5,5 km/h (1 Bft) N-NW 337 13,6 C 27,1 C 7,9 km/h (2 Bft)
02.07.2013 18:15 23,1 C 53 % 1019,6 hPa 0,0 l/m 4,3 km/h (1 Bft) W 270 13,0 C 27,1 C 5,1 km/h (1 Bft)
02.07.2013 18:20 23,3 C 56 % 1019,6 hPa 0,0 l/m 2,9 km/h (1 Bft) N 360 14,0 C 28,2 C 5,1 km/h (1 Bft)
02.07.2013 18:25 23,2 C 55 % 1019,6 hPa 0,0 l/m 2,7 km/h (1 Bft) O-SO 112 13,6 C 28,8 C 3,4 km/h (1 Bft)
02.07.2013 18:30 23,0 C 56 % 1019,6 hPa 0,0 l/m 2,7 km/h (1 Bft) N 360 13,7 C 28,7 C 3,7 km/h (1 Bft)
02.07.2013 18:35 22,9 C 57 % 1019,6 hPa 0,0 l/m 3,1 km/h (1 Bft) W-NW 292 13,9 C 29,0 C 4,0 km/h (1 Bft)
02.07.2013 18:40 23,0 C 55 % 1019,6 hPa 0,0 l/m 2,4 km/h (1 Bft) N-NW 337 13,5 C 29,1 C 3,1 km/h (1 Bft)
02.07.2013 18:45 23,0 C 55 % 1019,1 hPa 0,0 l/m 2,4 km/h (1 Bft) NO 45 13,5 C 28,9 C 6,3 km/h (2 Bft)
02.07.2013 18:50 22,7 C 58 % 1019,1 hPa 0,0 l/m 2,4 km/h (1 Bft) NW 315 14,0 C 28,8 C 3,5 km/h (1 Bft)
02.07.2013 18:55 22,7 C 57 % 1019,1 hPa 0,0 l/m 2,6 km/h (1 Bft) O 90 13,7 C 28,6 C 0,0 km/h (0 Bft)
02.07.2013 19:00 22,7 C 57 % 1019,1 hPa 0,0 l/m 2,3 km/h (1 Bft) W 270 13,7 C 28,9 C 2,1 km/h (1 Bft)
02.07.2013 19:05 22,6 C 57 % 1018,7 hPa 0,0 l/m 1,8 km/h (1 Bft) N-NW 337 13,6 C 28,9 C 4,5 km/h (1 Bft)
02.07.2013 19:10 22,4 C 57 % 1018,7 hPa 0,0 l/m 2,1 km/h (1 Bft) NO 45 13,5 C 28,7 C 4,0 km/h (1 Bft)
02.07.2013 19:15 22,3 C 59 % 1018,7 hPa 0,0 l/m 1,9 km/h (1 Bft) N 360 13,9 C 28,8 C 2,3 km/h (1 Bft)
02.07.2013 19:20 22,2 C 59 % 1018,7 hPa 0,0 l/m 2,3 km/h (1 Bft) NW 315 13,8 C 28,5 C 4,7 km/h (1 Bft)
02.07.2013 19:25 22,1 C 59 % 1018,8 hPa 0,0 l/m 1,9 km/h (1 Bft) N-NW 337 13,7 C 28,0 C 2,6 km/h (1 Bft)
02.07.2013 19:30 21,9 C 61 % 1018,8 hPa 0,0 l/m 1,6 km/h (1 Bft) W-NW 292 14,0 C 27,8 C 2,3 km/h (1 Bft)
02.07.2013 19:35 21,8 C 59 % 1018,8 hPa 0,0 l/m 1,4 km/h (1 Bft) N 360 13,4 C 27,3 C 0,0 km/h (0 Bft)
02.07.2013 19:40 21,8 C 61 % 1018,8 hPa 0,0 l/m 1,1 km/h (1 Bft) W-SW 247 13,9 C 27,1 C 1,6 km/h (1 Bft)
02.07.2013 19:45 21,9 C 62 % 1018,6 hPa 0,0 l/m 0,8 km/h (0 Bft) NO 45 14,3 C 27,1 C 1,6 km/h (1 Bft)
02.07.2013 19:50 21,7 C 63 % 1018,6 hPa 0,0 l/m 0,3 km/h (0 Bft) N-NW 337 14,3 C 27,4 C 0,0 km/h (0 Bft)
02.07.2013 19:55 21,4 C 63 % 1018,6 hPa 0,0 l/m 0,3 km/h (0 Bft) O 90 14,1 C 27,5 C 1,9 km/h (1 Bft)
02.07.2013 20:00 20,8 C 64 % 1018,6 hPa 0,0 l/m 0,5 km/h (0 Bft) O 90 13,7 C 26,8 C 0,0 km/h (0 Bft)
02.07.2013 20:05 20,3 C 65 % 1018,2 hPa 0,0 l/m 0,3 km/h (0 Bft) N-NO 22 13,5 C 25,6 C 0,0 km/h (0 Bft)
02.07.2013 20:10 19,8 C 66 % 1018,2 hPa 0,0 l/m 0,3 km/h (0 Bft) N-NO 22 13,3 C 23,5 C 0,0 km/h (0 Bft)
02.07.2013 20:15 19,4 C 67 % 1018,2 hPa 0,0 l/m 0,5 km/h (0 Bft) N-NO 22 13,1 C 22,4 C 0,0 km/h (0 Bft)
02.07.2013 20:20 19,2 C 69 % 1018,2 hPa 0,0 l/m 0,3 km/h (0 Bft) NO 45 13,4 C 21,3 C 1,6 km/h (1 Bft)
02.07.2013 20:25 18,9 C 69 % 1018,6 hPa 0,0 l/m 0,3 km/h (0 Bft) O 90 13,1 C 20,8 C 1,8 km/h (1 Bft)
02.07.2013 20:30 18,6 C 70 % 1018,6 hPa 0,0 l/m 0,2 km/h (0 Bft) O 90 13,0 C 20,1 C 0,0 km/h (0 Bft)
02.07.2013 20:35 18,5 C 70 % 1018,6 hPa 0,0 l/m 0,0 km/h (0 Bft) N-NO 22 12,9 C 19,7 C 0,0 km/h (0 Bft)
02.07.2013 20:40 18,4 C 71 % 1018,6 hPa 0,0 l/m 0,0 km/h (0 Bft) S-SO 157 13,0 C 19,4 C 0,0 km/h (0 Bft)
02.07.2013 20:45 18,2 C 72 % 1018,6 hPa 0,0 l/m 0,0 km/h (0 Bft) O-SO 112 13,1 C 19,0 C 0,0 km/h (0 Bft)
02.07.2013 20:50 18,0 C 75 % 1018,6 hPa 0,0 l/m 0,0 km/h (0 Bft) N-NO 22 13,5 C 18,3 C 0,0 km/h (0 Bft)
02.07.2013 20:55 17,8 C 79 % 1018,6 hPa 0,0 l/m 0,6 km/h (0 Bft) N-NW 337 14,1 C 18,0 C 2,6 km/h (1 Bft)
02.07.2013 21:00 17,5 C 77 % 1018,6 hPa 0,0 l/m 1,0 km/h (0 Bft) W-SW 247 13,4 C 17,7 C 0,0 km/h (0 Bft)
02.07.2013 21:05 17,3 C 78 % 1018,4 hPa 0,0 l/m 0,5 km/h (0 Bft) NO 45 13,4 C 17,3 C 0,0 km/h (0 Bft)
02.07.2013 21:10 17,0 C 78 % 1018,4 hPa 0,0 l/m 0,2 km/h (0 Bft) NW 315 13,1 C 16,9 C 0,0 km/h (0 Bft)
02.07.2013 21:15 16,9 C 78 % 1018,4 hPa 0,0 l/m 0,2 km/h (0 Bft) S-SO 157 13,0 C 16,8 C 0,0 km/h (0 Bft)
02.07.2013 21:20 16,9 C 77 % 1018,4 hPa 0,0 l/m 0,0 km/h (0 Bft) NO 45 12,8 C 16,7 C 0,0 km/h (0 Bft)
02.07.2013 21:25 17,0 C 77 % 1018,6 hPa 0,0 l/m 0,3 km/h (0 Bft) S-SW 202 12,9 C 16,8 C 0,0 km/h (0 Bft)
02.07.2013 21:30 17,3 C 77 % 1018,6 hPa 0,0 l/m 1,1 km/h (1 Bft) N-NW 337 13,2 C 17,1 C 0,0 km/h (0 Bft)
02.07.2013 21:35 17,3 C 77 % 1018,6 hPa 0,0 l/m 1,3 km/h (1 Bft) O 90 13,2 C 17,2 C 4,0 km/h (1 Bft)
02.07.2013 21:40 17,3 C 77 % 1018,6 hPa 0,0 l/m 2,6 km/h (1 Bft) O-NO 67 13,2 C 17,1 C 3,1 km/h (1 Bft)
02.07.2013 21:45 17,1 C 78 % 1018,6 hPa 0,0 l/m 3,2 km/h (1 Bft) NO 45 13,2 C 17,0 C 2,3 km/h (1 Bft)
02.07.2013 21:50 16,9 C 77 % 1018,6 hPa 0,0 l/m 1,3 km/h (1 Bft) SW 225 12,8 C 17,1 C 0,0 km/h (0 Bft)
02.07.2013 21:55 16,8 C 78 % 1018,6 hPa 0,0 l/m 0,8 km/h (0 Bft) W-NW 292 12,9 C 17,0 C 1,8 km/h (1 Bft)
02.07.2013 22:00 16,6 C 78 % 1018,6 hPa 0,0 l/m 0,8 km/h (0 Bft) N 360 12,7 C 16,9 C 0,0 km/h (0 Bft)
02.07.2013 22:05 16,6 C 78 % 1018,9 hPa 0,0 l/m 1,1 km/h (1 Bft) N-NO 22 12,7 C 16,9 C 3,9 km/h (1 Bft)
02.07.2013 22:10 16,7 C 78 % 1018,9 hPa 0,0 l/m 2,3 km/h (1 Bft) W-NW 292 12,8 C 17,0 C 5,5 km/h (1 Bft)
02.07.2013 22:15 16,7 C 78 % 1018,9 hPa 0,0 l/m 2,9 km/h (1 Bft) W-SW 247 12,8 C 17,1 C 2,4 km/h (1 Bft)
02.07.2013 22:20 16,6 C 78 % 1018,9 hPa 0,0 l/m 2,9 km/h (1 Bft) S 180 12,7 C 17,1 C 5,5 km/h (1 Bft)
02.07.2013 22:25 16,6 C 78 % 1019,2 hPa 0,0 l/m 3,2 km/h (1 Bft) S 180 12,7 C 17,0 C 4,7 km/h (1 Bft)
02.07.2013 22:30 16,8 C 73 % 1019,2 hPa 0,0 l/m 6,9 km/h (2 Bft) S 180 11,9 C 16,8 C 9,5 km/h (2 Bft)
02.07.2013 22:35 16,7 C 73 % 1019,2 hPa 0,0 l/m 7,4 km/h (2 Bft) S 180 11,8 C 16,5 C 6,3 km/h (2 Bft)
02.07.2013 22:40 17,0 C 70 % 1019,2 hPa 0,0 l/m 4,8 km/h (1 Bft) S 180 11,5 C 17,1 C 6,9 km/h (2 Bft)
02.07.2013 22:45 17,0 C 70 % 1020,2 hPa 0,0 l/m 4,7 km/h (1 Bft) S 180 11,5 C 17,3 C 5,1 km/h (1 Bft)
02.07.2013 22:50 15,7 C 78 % 1020,2 hPa 0,0 l/m 5,0 km/h (1 Bft) S-SO 157 11,9 C 16,5 C 4,8 km/h (1 Bft)
02.07.2013 22:55 14,8 C 84 % 1020,2 hPa 0,7 l/m 5,3 km/h (1 Bft) S 180 12,1 C 15,3 C 8,7 km/h (2 Bft)
02.07.2013 23:00 14,1 C 87 % 1020,2 hPa 1,4 l/m 5,8 km/h (2 Bft) SO 135 12,0 C 14,1 C 8,2 km/h (2 Bft)
02.07.2013 23:05 13,8 C 88 % 1020,8 hPa 0,0 l/m 4,7 km/h (1 Bft) O-NO 67 11,8 C 13,8 C 3,5 km/h (1 Bft)
02.07.2013 23:10 13,7 C 89 % 1020,8 hPa 0,0 l/m 2,9 km/h (1 Bft) NO 45 11,9 C 13,5 C 2,7 km/h (1 Bft)
02.07.2013 23:15 13,5 C 90 % 1020,8 hPa 0,0 l/m 1,8 km/h (1 Bft) S-SO 157 11,9 C 13,4 C 3,7 km/h (1 Bft)
02.07.2013 23:20 13,4 C 90 % 1020,8 hPa 0,0 l/m 2,4 km/h (1 Bft) NO 45 11,8 C 13,3 C 2,7 km/h (1 Bft)
02.07.2013 23:25 13,3 C 91 % 1020,9 hPa 0,7 l/m 3,2 km/h (1 Bft) NO 45 11,9 C 13,2 C 2,9 km/h (1 Bft)
02.07.2013 23:30 13,3 C 91 % 1020,9 hPa 0,0 l/m 1,8 km/h (1 Bft) O 90 11,9 C 13,1 C 2,6 km/h (1 Bft)
02.07.2013 23:35 13,2 C 92 % 1020,9 hPa 0,7 l/m 1,0 km/h (0 Bft) N 360 11,9 C 13,1 C 0,0 km/h (0 Bft)
02.07.2013 23:40 13,1 C 92 % 1020,9 hPa 0,0 l/m 0,3 km/h (0 Bft) O-NO 67 11,8 C 13,1 C 0,0 km/h (0 Bft)
02.07.2013 23:45 13,1 C 92 % 1020,7 hPa 0,7 l/m 0,5 km/h (0 Bft) NO 45 11,8 C 13,0 C 1,8 km/h (1 Bft)
02.07.2013 23:50 13,0 C 92 % 1020,7 hPa 0,7 l/m 0,5 km/h (0 Bft) O 90 11,7 C 13,0 C 2,1 km/h (1 Bft)
02.07.2013 23:55 12,9 C 93 % 1020,7 hPa 0,0 l/m 0,5 km/h (0 Bft) NO 45 11,8 C 12,9 C 0,0 km/h (0 Bft)
_ Min-Zeit 03:05 14:25 20:20 - 21:20 - - 03:05 03:20 23:55
Minimum _ 9,2 C 37 % 1018,2 hPa - 0,0 km/h (0 Bft) - - 7,5 C 9,1 C 0,0 km/h (0 Bft)
_ Max-Zeit 14:25 23:55 12:40 23:00 14:00 - - 07:55 14:50 13:20
Maximum _ 28,4 C 93 % 1021,6 hPa 1,4 l/m 8,0 km/h
SW (2 Bft)
- - 15,1 C 29,6 C 19,3 km/h
S-SW (3 Bft)
Durchschnitt _ 19,1 C 65 % 1020,2 hPa #4,8 l/m 2,4 km/h (1 Bft) S - 11,4 C 20,1 C 3,4 km/h (1 Bft)